Location: Błaszki
(51.6534°N, 18.4393°E)
Time: 22:16:31
(UTC+01:00)

ISS - Visible Passes

Search period start: 19 January 2018 00:00
Search period end: 29 January 2018 00:00
Orbit: 402 x 407 km, 51.6° (Epoch: 20 January)

Date Brightness Start Highest point End Pass type
(mag) Time Alt. Az. Time Alt. Az. Time Alt. Az.
26 Jan -1.2 18:55:27 10° SSW 18:56:11 15° SSW 18:56:11 15° SSW visible
27 Jan -1.9 18:03:47 10° S 18:06:02 17° SE 18:06:11 17° SE visible
27 Jan -0.4 19:38:49 10° WSW 19:38:51 10° WSW 19:38:51 10° WSW visible
28 Jan -1.4 17:12:53 10° SSE 17:13:53 11° SE 17:14:53 10° ESE visible
28 Jan -2.5 18:46:36 10° SW 18:48:46 32° SSW 18:48:46 32° SSW visible
